| time (UTC) | temp F | wind direction | speed knots | gust knots | rain 1hr in | rain 24hr in | rain mn in | humidity % | barometer mb |
| 20260504235054 | 73 | 6 | 0.0 | 0.0 | 0.00 | 0.00 | 0.00 | 47 | 1032.4 |
| 20260504234551 | 73 | 7 | 0.0 | 0.0 | 0.00 | 0.00 | 0.00 | 47 | 1032.5 |
| 20260504234049 | 74 | 4 | 0.0 | 0.0 | 0.00 | 0.00 | 0.00 | 46 | 1032.5 |
| 20260504233544 | 74 | 354 | 0.0 | 0.0 | 0.00 | 0.00 | 0.00 | 46 | 1032.8 |
| 20260504233041 | 74 | 350 | 0.0 | 0.9 | 0.00 | 0.00 | 0.00 | 46 | 1032.7 |
| 20260504232538 | 74 | 350 | 0.0 | 0.0 | 0.00 | 0.00 | 0.00 | 46 | 1032.7 |
| 20260504232036 | 74 | 352 | 0.0 | 0.0 | 0.00 | 0.00 | 0.00 | 46 | 1032.8 |
| 20260504231532 | 74 | 14 | 0.0 | 0.0 | 0.00 | 0.00 | 0.00 | 46 | 1032.5 |
| 20260504231028 | 75 | 0 | 0.0 | 0.0 | 0.00 | 0.00 | 0.00 | 45 | 1032.5 |
| 20260504230524 | 75 | 356 | 0.9 | 0.9 | 0.00 | 0.00 | 0.00 | 43 | 1032.8 |
| 20260504230023 | 75 | 352 | 0.9 | 0.9 | 0.00 | 0.00 | 0.00 | 44 | 1032.8 |
| 20260504225520 | 75 | 348 | 0.9 | 1.7 | 0.00 | 0.00 | 0.00 | 44 | 1032.8 |
| 20260504225017 | 75 | 13 | 0.0 | 0.0 | 0.00 | 0.00 | 0.00 | 43 | 1032.8 |
| 20260504224514 | 75 | 13 | 0.0 | 0.0 | 0.00 | 0.00 | 0.00 | 45 | 1032.9 |
| 20260504224011 | 76 | 332 | 0.0 | 0.0 | 0.00 | 0.00 | 0.00 | 45 | 1032.9 |
| 20260504223507 | 76 | 18 | 0.0 | 0.0 | 0.00 | 0.00 | 0.00 | 43 | 1033.0 |
| 20260504223003 | 76 | 25 | 0.0 | 0.0 | 0.00 | 0.00 | 0.00 | 43 | 1032.8 |
| 20260504222500 | 76 | 0 | 0.0 | 0.0 | 0.00 | 0.00 | 0.00 | 45 | 1033.0 |
| 20260504221958 | 77 | 354 | 1.7 | 1.7 | 0.00 | 0.00 | 0.00 | 42 | 1032.9 |
| 20260504221455 | 77 | 300 | 0.9 | 1.7 | 0.00 | 0.00 | 0.00 | 39 | 1032.8 |
| 20260504220952 | 77 | 68 | 0.0 | 0.0 | 0.00 | 0.00 | 0.00 | 44 | 1033.0 |
| 20260504220448 | 78 | 21 | 0.0 | 0.0 | 0.00 | 0.00 | 0.00 | 40 | 1033.0 |
| 20260504215945 | 80 | 16 | 0.0 | 0.0 | 0.00 | 0.00 | 0.00 | 39 | 1033.1 |
| 20260504215442 | 79 | 19 | 0.0 | 0.0 | 0.00 | 0.00 | 0.00 | 38 | 1032.9 |
| 20260504214938 | 79 | 41 | 0.0 | 0.0 | 0.00 | 0.00 | 0.00 | 40 | 1033.1 |
| 20260504214435 | 78 | 233 | 0.0 | 0.0 | 0.00 | 0.00 | 0.00 | 41 | 1033.1 |
| 20260504213932 | 77 | 20 | 0.0 | 0.0 | 0.00 | 0.00 | 0.00 | 44 | 1033.0 |
| 20260504213428 | 77 | 344 | 1.7 | 1.7 | 0.00 | 0.00 | 0.00 | 46 | 1033.2 |
| 20260504212926 | 77 | 351 | 0.0 | 0.9 | 0.00 | 0.00 | 0.00 | 43 | 1033.4 |
| 20260504212421 | 78 | 25 | 0.0 | 0.0 | 0.00 | 0.00 | 0.00 | 45 | 1032.9 |
| 20260504211919 | 77 | 344 | 0.0 | 0.0 | 0.00 | 0.00 | 0.00 | 44 | 1033.2 |
| 20260504211415 | 78 | 5 | 0.0 | 0.0 | 0.00 | 0.00 | 0.00 | 43 | 1033.2 |
| 20260504210912 | 77 | 347 | 0.0 | 0.9 | 0.00 | 0.00 | 0.00 | 46 | 1033.1 |
| 20260504210409 | 77 | 348 | 0.0 | 0.0 | 0.00 | 0.00 | 0.00 | 46 | 1033.1 |
| 20260504205907 | 76 | 13 | 0.9 | 0.9 | 0.00 | 0.00 | 0.00 | 45 | 1033.3 |
| 20260504205404 | 76 | 26 | 0.0 | 0.0 | 0.00 | 0.00 | 0.00 | 47 | 1033.4 |
| 20260504204902 | 76 | 6 | 0.9 | 1.7 | 0.00 | 0.00 | 0.00 | 43 | 1033.4 |
| 20260504204400 | 77 | 343 | 2.6 | 2.6 | 0.00 | 0.00 | 0.00 | 44 | 1033.4 |
| 20260504203900 | 77 | 9 | 0.0 | 0.0 | 0.00 | 0.00 | 0.00 | 45 | 1033.3 |
| 20260504203356 | 77 | 7 | 0.0 | 0.0 | 0.00 | 0.00 | 0.00 | 42 | 1033.4 |
| 20260504202852 | 77 | 19 | 0.0 | 0.0 | 0.00 | 0.00 | 0.00 | 44 | 1033.5 |
| 20260504202349 | 78 | 35 | 0.0 | 0.0 | 0.00 | 0.00 | 0.00 | 47 | 1033.2 |
| 20260504201845 | 78 | 339 | 0.9 | 0.9 | 0.00 | 0.00 | 0.00 | 46 | 1033.6 |
| 20260504201343 | 77 | 29 | 0.0 | 0.0 | 0.00 | 0.00 | 0.00 | 45 | 1033.6 |
| 20260504200840 | 76 | 2 | 0.0 | 0.0 | 0.00 | 0.00 | 0.00 | 45 | 1033.5 |
| 20260504200337 | 76 | 21 | 0.0 | 0.0 | 0.00 | 0.00 | 0.00 | 45 | 1033.8 |
| 20260504195833 | 76 | 6 | 0.0 | 0.0 | 0.00 | 0.00 | 0.00 | 46 | 1033.7 |
| 20260504195329 | 77 | 334 | 0.9 | 1.7 | 0.00 | 0.00 | 0.00 | 43 | 1033.9 |
| 20260504194826 | 77 | 18 | 0.9 | 0.9 | 0.00 | 0.00 | 0.00 | 44 | 1034.2 |
| 20260504194322 | 77 | 356 | 0.0 | 0.9 | 0.00 | 0.00 | 0.00 | 39 | 1034.0 |
| 20260504193818 | 77 | 21 | 0.0 | 0.0 | 0.00 | 0.00 | 0.00 | 41 | 1034.1 |
| 20260504193316 | 76 | 10 | 1.7 | 1.7 | 0.00 | 0.00 | 0.00 | 45 | 1034.3 |
| 20260504192814 | 77 | 328 | 1.7 | 2.6 | 0.00 | 0.00 | 0.00 | 43 | 1034.1 |
| 20260504192312 | 80 | 342 | 0.9 | 0.9 | 0.00 | 0.00 | 0.00 | 41 | 1034.0 |
| 20260504191810 | 79 | 345 | 0.9 | 0.9 | 0.00 | 0.00 | 0.00 | 43 | 1034.2 |
| 20260504191307 | 79 | 11 | 0.0 | 0.0 | 0.00 | 0.00 | 0.00 | 44 | 1034.4 |
| 20260504190802 | 79 | 16 | 0.0 | 0.0 | 0.00 | 0.00 | 0.00 | 44 | 1034.5 |
| 20260504190259 | 80 | 17 | 0.0 | 0.0 | 0.00 | 0.00 | 0.00 | 43 | 1034.4 |
| 20260504185755 | 79 | 119 | 0.9 | 0.9 | 0.00 | 0.00 | 0.00 | 41 | 1034.5 |
| 20260504185253 | 78 | 10 | 0.9 | 1.7 | 0.00 | 0.00 | 0.00 | 46 | 1034.5 |
| 20260504184749 | 79 | 20 | 0.0 | 0.0 | 0.00 | 0.00 | 0.00 | 46 | 1034.8 |
| 20260504184244 | 77 | 10 | 0.9 | 0.9 | 0.00 | 0.00 | 0.00 | 46 | 1034.6 |
| 20260504183740 | 77 | 10 | 0.0 | 0.9 | 0.00 | 0.00 | 0.00 | 45 | 1035.0 |
| 20260504183237 | 78 | 356 | 0.0 | 0.0 | 0.00 | 0.00 | 0.00 | 42 | 1034.8 |
| 20260504182736 | 78 | 337 | 1.7 | 2.6 | 0.00 | 0.00 | 0.00 | 44 | 1035.1 |
| 20260504182233 | 77 | 26 | 0.0 | 0.0 | 0.00 | 0.00 | 0.00 | 46 | 1035.1 |
| 20260504181730 | 78 | 19 | 0.0 | 0.0 | 0.00 | 0.00 | 0.00 | 46 | 1035.2 |
| 20260504181227 | 78 | 188 | 0.9 | 0.9 | 0.00 | 0.00 | 0.00 | 41 | 1035.2 |
| 20260504180726 | 78 | 338 | 1.7 | 1.7 | 0.00 | 0.00 | 0.00 | 43 | 1035.4 |
| 20260504180225 | 77 | 175 | 1.7 | 1.7 | 0.00 | 0.00 | 0.00 | 45 | 1035.1 |
| 20260504175722 | 77 | 20 | 0.0 | 0.0 | 0.00 | 0.00 | 0.00 | 47 | 1035.7 |
| 20260504175218 | 77 | 349 | 0.0 | 0.0 | 0.00 | 0.00 | 0.00 | 46 | 1035.6 |
| 20260504174716 | 78 | 214 | 0.9 | 2.6 | 0.00 | 0.00 | 0.00 | 45 | 1035.6 |
| 20260504174214 | 77 | 7 | 0.0 | 0.0 | 0.00 | 0.00 | 0.00 | 44 | 1035.3 |
| 20260504173710 | 79 | 12 | 0.0 | 0.9 | 0.00 | 0.00 | 0.00 | 43 | 1035.7 |
| 20260504173208 | 77 | 351 | 0.0 | 0.0 | 0.00 | 0.00 | 0.00 | 47 | 1035.7 |
| 20260504172704 | 75 | 14 | 0.0 | 0.0 | 0.00 | 0.00 | 0.00 | 43 | 1035.6 |
| 20260504172200 | 75 | 342 | 0.0 | 0.0 | 0.00 | 0.00 | 0.00 | 47 | 1035.8 |
| 20260504171657 | 75 | 334 | 2.6 | 2.6 | 0.00 | 0.00 | 0.00 | 46 | 1035.9 |
| 20260504171154 | 76 | 20 | 0.0 | 0.0 | 0.00 | 0.00 | 0.00 | 45 | 1036.0 |
| 20260504170650 | 75 | 353 | 0.0 | 0.0 | 0.00 | 0.00 | 0.00 | 48 | 1036.1 |
| 20260504170148 | 76 | 31 | 0.0 | 0.0 | 0.00 | 0.00 | 0.00 | 49 | 1036.3 |
| 20260504151033 | 70 | 342 | 0.0 | 0.9 | 0.00 | 0.00 | 0.00 | 58 | 1036.9 |
| 20260504150531 | 69 | 352 | 0.0 | 0.0 | 0.00 | 0.00 | 0.00 | 59 | 1037.0 |
| 20260504140957 | 62 | 343 | 0.0 | 0.0 | 0.00 | 0.00 | 0.00 | 70 | 1037.2 |
| 20260504140453 | 61 | 12 | 0.0 | 0.0 | 0.00 | 0.00 | 0.00 | 70 | 1037.4 |
| 20260504130418 | 52 | 179 | 0.0 | 0.0 | 0.00 | 0.00 | 0.00 | 92 | 1037.3 |
| 20260504110305 | 47 | 54 | 0.0 | 0.0 | 0.00 | 0.00 | 0.00 | 98 | 1036.7 |
| 20260504100223 | 47 | 46 | 0.0 | 0.0 | 0.00 | 0.00 | 0.00 | 97 | 1036.7 |
| 20260504081616 | 49 | 344 | 0.0 | 0.0 | 0.00 | 0.00 | 0.00 | 96 | 1036.6 |
| 20260504081112 | 49 | 344 | 0.0 | 0.0 | 0.00 | 0.00 | 0.00 | 96 | 1036.5 |
| 20260504080609 | 48 | 344 | 0.0 | 0.0 | 0.00 | 0.00 | 0.00 | 96 | 1036.7 |
| 20260504080105 | 48 | 344 | 0.0 | 0.0 | 0.00 | 0.00 | 0.00 | 96 | 1036.8 |
| 20260504050416 | 52 | 344 | 0.0 | 0.0 | 0.00 | 0.00 | 0.00 | 89 | 1037.9 |
| 20260504045913 | 52 | 344 | 0.0 | 0.0 | 0.00 | 0.00 | 0.00 | 87 | 1037.8 |
| 20260504045408 | 52 | 344 | 0.0 | 0.0 | 0.00 | 0.00 | 0.00 | 86 | 1037.7 |
| 20260504044905 | 52 | 344 | 0.0 | 0.0 | 0.00 | 0.00 | 0.00 | 85 | 1037.9 |
| 20260504044403 | 52 | 344 | 0.0 | 0.0 | 0.00 | 0.00 | 0.00 | 84 | 1038.0 |
| 20260504043900 | 53 | 344 | 0.0 | 0.0 | 0.00 | 0.00 | 0.00 | 84 | 1037.9 |
| 20260504043356 | 53 | 344 | 0.0 | 0.0 | 0.00 | 0.00 | 0.00 | 83 | 1038.1 |
| 20260504042854 | 53 | 342 | 0.0 | 0.0 | 0.00 | 0.00 | 0.00 | 83 | 1038.0 |
| 20260504042350 | 53 | 343 | 0.0 | 0.0 | 0.00 | 0.00 | 0.00 | 82 | 1038.1 |
| 20260504041847 | 53 | 332 | 0.0 | 0.0 | 0.00 | 0.00 | 0.00 | 83 | 1038.1 |
| 20260504041343 | 53 | 358 | 0.0 | 0.0 | 0.00 | 0.00 | 0.00 | 83 | 1038.1 |
| 20260504040839 | 54 | 359 | 0.0 | 0.0 | 0.00 | 0.00 | 0.00 | 83 | 1038.2 |
| 20260504040337 | 54 | 359 | 0.0 | 0.0 | 0.00 | 0.00 | 0.00 | 82 | 1038.1 |
| 20260504035832 | 54 | 359 | 0.0 | 0.0 | 0.00 | 0.00 | 0.00 | 83 | 1038.0 |
| 20260504035331 | 54 | 359 | 0.0 | 0.0 | 0.00 | 0.00 | 0.00 | 82 | 1037.9 |
| 20260504034827 | 54 | 359 | 0.0 | 0.0 | 0.00 | 0.00 | 0.00 | 82 | 1038.2 |
| 20260504034325 | 54 | 359 | 0.0 | 0.0 | 0.00 | 0.00 | 0.00 | 82 | 1038.2 |
| 20260504033821 | 54 | 359 | 0.0 | 0.0 | 0.00 | 0.00 | 0.00 | 81 | 1038.3 |
| 20260504033320 | 55 | 359 | 0.0 | 0.0 | 0.00 | 0.00 | 0.00 | 81 | 1038.4 |
| 20260504032816 | 55 | 359 | 0.0 | 0.0 | 0.00 | 0.00 | 0.00 | 80 | 1038.4 |
| 20260504032313 | 55 | 359 | 0.0 | 0.0 | 0.00 | 0.00 | 0.00 | 80 | 1038.5 |
| 20260504031810 | 55 | 359 | 0.0 | 0.0 | 0.00 | 0.00 | 0.00 | 80 | 1038.5 |
| 20260504031307 | 55 | 359 | 0.0 | 0.0 | 0.00 | 0.00 | 0.00 | 79 | 1038.4 |
| 20260504030803 | 55 | 359 | 0.0 | 0.0 | 0.00 | 0.00 | 0.00 | 75 | 1038.4 |
| 20260504030301 | 56 | 359 | 0.0 | 0.0 | 0.00 | 0.00 | 0.00 | 75 | 1038.3 |
| 20260504025756 | 56 | 359 | 0.0 | 0.0 | 0.00 | 0.00 | 0.00 | 74 | 1038.4 |
| 20260504025254 | 56 | 359 | 0.0 | 0.0 | 0.00 | 0.00 | 0.00 | 75 | 1038.1 |
| 20260504024750 | 56 | 359 | 0.0 | 0.0 | 0.00 | 0.00 | 0.00 | 74 | 1038.1 |
| 20260504024247 | 56 | 359 | 0.0 | 0.0 | 0.00 | 0.00 | 0.00 | 71 | 1038.1 |
| 20260504023744 | 57 | 359 | 0.0 | 0.0 | 0.00 | 0.00 | 0.00 | 73 | 1038.2 |
| 20260504023240 | 57 | 359 | 0.0 | 0.0 | 0.00 | 0.00 | 0.00 | 71 | 1038.1 |
| 20260504022736 | 57 | 359 | 0.0 | 0.0 | 0.00 | 0.00 | 0.00 | 69 | 1038.0 |
| 20260504022233 | 57 | 359 | 0.0 | 0.0 | 0.00 | 0.00 | 0.00 | 69 | 1037.9 |
| 20260504021730 | 57 | 359 | 0.0 | 0.0 | 0.00 | 0.00 | 0.00 | 70 | 1037.8 |
| 20260504021227 | 58 | 359 | 0.0 | 0.0 | 0.00 | 0.00 | 0.00 | 70 | 1037.6 |
| 20260504020724 | 58 | 359 | 0.0 | 0.0 | 0.00 | 0.00 | 0.00 | 72 | 1037.7 |
| 20260504020220 | 58 | 359 | 0.0 | 0.0 | 0.00 | 0.00 | 0.00 | 68 | 1037.9 |
| 20260504015717 | 58 | 359 | 0.0 | 0.0 | 0.00 | 0.00 | 0.00 | 70 | 1037.7 |
| 20260504015213 | 59 | 359 | 0.0 | 0.0 | 0.00 | 0.00 | 0.00 | 68 | 1037.8 |
| 20260504014709 | 59 | 359 | 0.0 | 0.0 | 0.00 | 0.00 | 0.00 | 67 | 1037.6 |
| 20260504014206 | 59 | 359 | 0.0 | 0.0 | 0.00 | 0.00 | 0.00 | 66 | 1037.7 |
| 20260504013704 | 59 | 359 | 0.0 | 0.0 | 0.00 | 0.00 | 0.00 | 65 | 1037.8 |
| 20260504013201 | 59 | 359 | 0.0 | 0.0 | 0.00 | 0.00 | 0.00 | 65 | 1037.6 |
| 20260504012657 | 59 | 359 | 0.0 | 0.0 | 0.00 | 0.00 | 0.00 | 66 | 1037.5 |
| 20260504012155 | 60 | 359 | 0.0 | 0.0 | 0.00 | 0.00 | 0.00 | 68 | 1037.2 |
| 20260504011652 | 60 | 359 | 0.0 | 0.0 | 0.00 | 0.00 | 0.00 | 64 | 1037.5 |
| 20260504011148 | 61 | 359 | 0.0 | 0.0 | 0.00 | 0.00 | 0.00 | 61 | 1037.3 |
| 20260504010644 | 61 | 359 | 0.0 | 0.0 | 0.00 | 0.00 | 0.00 | 59 | 1037.2 |
| 20260504010140 | 61 | 359 | 0.0 | 0.0 | 0.00 | 0.00 | 0.00 | 60 | 1037.3 |
| 20260504005637 | 61 | 359 | 0.0 | 0.0 | 0.00 | 0.00 | 0.00 | 60 | 1037.2 |
| 20260504005134 | 62 | 359 | 0.0 | 0.0 | 0.00 | 0.00 | 0.00 | 60 | 1037.3 |
| 20260504004632 | 62 | 359 | 0.0 | 0.0 | 0.00 | 0.00 | 0.00 | 57 | 1037.1 |
| 20260504004129 | 62 | 359 | 0.0 | 0.0 | 0.00 | 0.00 | 0.00 | 59 | 1037.3 |
| 20260504003625 | 63 | 359 | 0.0 | 0.0 | 0.00 | 0.00 | 0.00 | 58 | 1037.2 |
| 20260504003122 | 63 | 359 | 0.0 | 0.0 | 0.00 | 0.00 | 0.00 | 57 | 1037.2 |
| 20260504002619 | 64 | 359 | 0.0 | 0.0 | 0.00 | 0.00 | 0.00 | 54 | 1037.1 |
| 20260504002116 | 64 | 359 | 0.0 | 0.0 | 0.00 | 0.00 | 0.00 | 54 | 1037.1 |
| 20260504001614 | 64 | 358 | 0.0 | 0.0 | 0.00 | 0.00 | 0.00 | 52 | 1037.1 |
| 20260504001109 | 65 | 354 | 0.0 | 0.0 | 0.00 | 0.00 | 0.00 | 51 | 1037.1 |
| 20260504000607 | 65 | 354 | 0.0 | 0.0 | 0.00 | 0.00 | 0.00 | 49 | 1037.2 |
| 20260504000105 | 65 | 344 | 0.0 | 0.0 | 0.00 | 0.00 | 0.00 | 49 | 1036.7 |
| 20260503235603 | 65 | 21 | 0.0 | 0.0 | 0.00 | 0.00 | 0.00 | 51 | 1037.2 |